[[{"header":{"parameterUnit":"m.s-1","parameterCategory":1,"la1":30.2991,"la2":30.254,"lo1":-89.0895,"lo2":-89.0444,"dy":0.0017,"dx":0.0017,"nx":28,"ny":28,"refTime":"2025-03-09T03:00:00:Z","depth":0,"parameterNumber":2,"parameterNumberName":"U-component_of_WINDS"},"data":[0,0,0,0,0,0,0,0,0,0,0,0,0,0,0,0,0,0,0,0,0,0,0,0,0,0,0,0,0,0,0,0,0,0,0,0,0,0,0,0,0,0,0,0,0,0,0,0,0,0,0,0,0,0,0,0,0,0,1.8972,1.8973,0,1.9036,1.9037,1.9038,1.9041,1.904,1.904,1.9039,1.9107,1.911,1.9112,0,0,0,0,0,0,0,0,0,0,0,0,0,1.8858,1.886,1.8972,1.8973,1.8974,1.9036,1.9037,1.9038,1.9041,1.904,1.904,1.9039,1.9106,1.9109,1.9112,0,0,0,0,0,0,0,0,0,0,0,0,0,1.8913,1.886,1.8972,1.8983,1.8984,1.9036,1.9037,1.9038,1.9042,1.904,1.9039,1.9038,1.9105,1.9109,1.9113,1.9158,0,0,1.9124,1.9126,0,0,0,0,0,0,0,0,1.891,1.8917,1.898,1.8982,1.8984,1.9029,1.9021,1.9078,1.9042,1.902,1.9039,1.9038,1.9082,1.9088,1.9102,1.9161,1.9164,1.9124,1.9127,1.9128,1.9129,0,0,0,0,0,0,0,1.8906,1.8915,1.8997,1.8981,1.8984,1.8986,1.8993,1.9032,1.9057,1.9022,1.9022,1.903,1.9083,1.9099,1.9104,1.9165,1.9124,1.9128,1.913,1.9131,1.9268,1.927,0,0,0,0,0,0,1.89,1.8911,1.8995,1.8999,1.8943,1.8989,1.8997,1.9016,1.9056,1.9061,1.903,1.903,1.9093,1.91,1.9106,1.9165,1.9128,1.9132,1.9134,1.9267,1.9269,1.927,0,0,0,0,0,0,1.8897,1.8907,1.8993,1.8956,1.8967,1.8992,1.9014,1.9018,1.9034,1.9063,1.9068,1.9042,1.9092,1.9101,1.9146,1.9167,1.9134,1.9137,1.9265,1.9267,1.9269,1.928,0,0,0,0,0,0,1.8894,1.8906,1.8922,1.8956,1.8969,1.903,1.9015,1.902,1.904,1.9039,1.9075,1.9079,1.9092,1.914,1.915,1.9171,1.914,1.9264,1.9266,1.9269,1.9278,1.9282,1.9285,0,0,0,0,0,1.889,1.8922,1.8923,1.8933,1.8989,1.9031,1.9038,1.9051,1.9041,1.9059,1.9078,1.9078,1.9163,1.9145,1.9155,1.9179,1.9262,1.9266,1.9269,1.9276,1.9281,1.9285,0,0,0,0,0,0,1.8891,1.8927,1.8928,1.8972,1.8998,1.9031,1.9053,1.9056,1.9086,1.9084,1.9101,1.9109,1.9154,1.917,1.9149,1.9227,1.9212,1.9217,1.9214,1.9219,1.9223,1.9218,1.9143,0,0,0,0,0,1.8896,1.8926,1.8956,1.8992,1.9005,1.9027,1.9046,1.9054,1.9082,1.9093,1.9116,1.9144,1.9178,1.9199,1.9231,1.928,1.9289,1.9302,1.9306,1.9309,1.9313,1.9344,1.935,1.928,1.928,1.928,0,0,1.8907,1.8931,1.8949,1.8993,1.9014,1.9047,1.9037,1.907,1.9095,1.9099,1.9143,1.9161,1.9193,1.9241,1.9263,1.9257,1.9335,1.9313,1.9315,1.9318,1.9348,1.9354,1.936,1.9282,1.9282,1.9282,0,0,1.8945,1.8965,1.8998,1.902,1.9053,1.9067,1.9076,1.9109,1.9121,1.9165,1.917,1.92,1.9256,1.928,1.93,1.935,1.9352,1.936,1.9381,1.941,1.9416,1.9421,1.9441,1.9448,1.9365,1.9365,1.9365,0,1.8955,1.9002,1.9015,1.905,1.9071,1.9076,1.9112,1.9132,1.9174,1.9189,1.9181,1.9254,1.9276,1.9331,1.9344,1.9359,1.937,1.9356,1.9414,1.9419,1.9424,1.9443,1.9451,1.9366,1.9365,1.9365,1.9365,0,1.9015,1.9048,1.9071,1.9112,1.9135,1.917,1.919,1.9213,1.922,1.9236,1.9283,1.931,1.9349,1.9363,1.9369,1.942,1.9415,1.941,1.9396,1.9431,1.945,1.9457,1.9367,1.9367,1.9366,1.9366,0,0,1.9053,1.9102,1.9111,1.913,1.9168,1.9194,1.9231,1.9269,1.9289,1.9318,1.9351,1.94,1.9396,1.9419,1.9429,1.9454,1.9496,1.9447,1.9448,1.9457,1.9556,1.956,1.9568,1.9497,1.9499,1.95,1.9554,0,1.9096,1.916,1.9174,1.923,1.9262,1.9269,1.9301,1.9329,1.9346,1.9377,1.9397,1.9432,1.9424,1.9438,1.9463,1.9485,1.9516,1.9481,1.953,1.9531,1.9522,1.9578,1.9582,1.9631,1.9561,1.9562,1.9563,0,1.9154,1.9185,1.9244,1.928,1.9294,1.9323,1.9361,1.9389,1.9422,1.9433,1.946,1.9468,1.9508,1.9492,1.955,1.9526,1.9547,1.9561,1.9563,1.9569,1.955,1.9587,1.9647,1.9655,1.9574,1.9573,1.9572,0,1.9179,1.9236,1.9279,1.9295,1.9338,1.9358,1.9377,1.9409,1.9432,1.9465,1.9481,1.9518,1.9539,1.9569,1.9589,1.9574,1.9646,1.963,1.9658,1.9658,1.9673,1.9672,1.9739,1.9684,1.9684,1.9684,1.9684,0,1.9226,1.9263,1.9291,1.9318,1.936,1.9377,1.9418,1.9438,1.9466,1.9498,1.9507,1.9537,1.956,1.9594,1.961,1.9657,1.9666,1.9677,1.9681,1.9677,1.9676,1.9692,1.9689,1.9686,1.9686,1.9685,1.9685,0,1.9261,1.9281,1.9329,1.9366,1.9376,1.9406,1.9438,1.9466,1.9484,1.9525,1.9536,1.9564,1.9605,1.9627,1.9678,1.9689,1.9743,1.9744,1.9731,1.9733,1.976,1.9758,1.9841,1.9854,1.9789,1.979,1.979,0,1.929,1.9319,1.9359,1.9381,1.94,1.9435,1.9459,1.9478,1.9503,1.9544,1.9567,1.9609,1.9643,1.9709,1.9735,1.9775,1.9779,1.9805,1.9785,1.9781,1.9782,1.978,1.9784,1.9809,1.9809,1.981,1.981,0,1.9341,1.935,1.9383,1.9421,1.945,1.948,1.9511,1.9529,1.9553,1.9581,1.9623,1.965,1.9703,1.9745,1.9788,1.9809,1.9815,1.9817,1.9826,1.9822,1.9815,1.9821,1.9743,1.9815,1.9814,1.9814,1.9814,1.9813,1.9375,1.9402,1.9435,1.9473,1.9498,1.9527,1.9555,1.9578,1.9613,1.9657,1.9666,1.9712,1.9747,1.9805,1.9828,1.9865,1.986,1.9872,1.9876,1.9879,1.9881,1.9808,1.9873,1.9872,1.9872,1.9872,1.9872,0,1.9428,1.945,1.9485,1.9528,1.9558,1.956,1.9595,1.9621,1.966,1.9692,1.9726,1.9776,1.9818,1.9848,1.9891,1.9915,1.9919,1.9926,1.9925,1.9931,1.9882,1.9871,1.9923,1.9923,1.9923,1.9922,1.9922,1.9922,1.9459,1.9505,1.9519,1.9578,1.96,1.9644,1.9664,1.9692,1.9718,1.9773,1.9808,1.9827,1.986,1.9906,1.9945,1.9953,1.9969,1.9977,1.9985,1.9939,1.9934,1.9929,1.9918,1.9979,1.998,2.0031,2.0032,2.0032]},{"header":{"parameterUnit":"m.s-1","parameterCategory":1,"la1":30.2991,"la2":30.254,"lo1":-89.0895,"lo2":-89.0444,"dy":0.0017,"dx":0.0017,"nx":28,"ny":28,"refTime":"2025-03-09T03:00:00:Z","depth":0,"parameterNumber":3,"parameterNumberName":"V-component_of_WINDS"},"data":[0,0,0,0,0,0,0,0,0,0,0,0,0,0,0,0,0,0,0,0,0,0,0,0,0,0,0,0,0,0,0,0,0,0,0,0,0,0,0,0,0,0,0,0,0,0,0,0,0,0,0,0,0,0,0,0,0,0,-3.073,-3.0731,0,-3.0833,-3.0834,-3.0835,-3.0929,-3.093,-3.0931,-3.0932,-3.1034,-3.1035,-3.1037,0,0,0,0,0,0,0,0,0,0,0,0,0,-3.0615,-3.0616,-3.073,-3.0731,-3.0733,-3.0833,-3.0834,-3.0835,-3.0929,-3.093,-3.0932,-3.0933,-3.1033,-3.1035,-3.1037,0,0,0,0,0,0,0,0,0,0,0,0,0,-3.0686,-3.0617,-3.073,-3.0791,-3.0798,-3.0832,-3.0834,-3.0836,-3.0928,-3.093,-3.0932,-3.0933,-3.1032,-3.1035,-3.1037,-3.1018,0,0,-3.1045,-3.1046,0,0,0,0,0,0,0,0,-3.0682,-3.069,-3.0781,-3.0787,-3.0794,-3.087,-3.0831,-3.0897,-3.0928,-3.0879,-3.0932,-3.0934,-3.0977,-3.0984,-3.1,-3.1023,-3.1027,-3.1045,-3.1046,-3.1047,-3.1048,0,0,0,0,0,0,0,-3.0676,-3.0686,-3.0771,-3.0782,-3.079,-3.0814,-3.0826,-3.0844,-3.0917,-3.0883,-3.089,-3.0901,-3.0981,-3.0997,-3.1003,-3.1028,-3.1045,-3.1047,-3.1048,-3.1049,-3.1047,-3.1045,0,0,0,0,0,0,-3.0662,-3.0681,-3.0767,-3.0774,-3.0741,-3.0815,-3.0828,-3.0844,-3.0917,-3.093,-3.09,-3.0905,-3.0992,-3.1,-3.1007,-3.0993,-3.1047,-3.105,-3.1051,-3.1048,-3.1046,-3.1045,0,0,0,0,0,0,-3.066,-3.0669,-3.0763,-3.073,-3.0743,-3.0815,-3.0832,-3.0845,-3.0861,-3.093,-3.0943,-3.0902,-3.0994,-3.1003,-3.1016,-3.0998,-3.1051,-3.1053,-3.105,-3.1048,-3.1045,-3.0962,0,0,0,0,0,0,-3.0656,-3.0668,-3.066,-3.0729,-3.0745,-3.077,-3.0831,-3.0846,-3.0865,-3.0874,-3.0936,-3.0948,-3.0996,-3.1012,-3.1018,-3.1002,-3.1055,-3.1052,-3.1049,-3.1046,-3.0967,-3.0957,-3.0949,0,0,0,0,0,-3.0651,-3.0631,-3.0659,-3.0669,-3.0737,-3.0769,-3.0778,-3.0835,-3.0863,-3.0858,-3.0903,-3.0946,-3.0999,-3.1012,-3.1021,-3.1004,-3.1053,-3.105,-3.1046,-3.0971,-3.0959,-3.0949,0,0,0,0,0,0,-3.0555,-3.064,-3.0673,-3.0674,-3.0714,-3.0785,-3.0778,-3.082,-3.0851,-3.0857,-3.0926,-3.0939,-3.0945,-3.0976,-3.099,-3.0993,-3.1032,-3.103,-3.0972,-3.0961,-3.0953,-3.0945,-3.1057,0,0,0,0,0,-3.0535,-3.0554,-3.0627,-3.0621,-3.0639,-3.0705,-3.0721,-3.0762,-3.0806,-3.0822,-3.0868,-3.0908,-3.0934,-3.0949,-3.0977,-3.0972,-3.0989,-3.0966,-3.0957,-3.0949,-3.0946,-3.0951,-3.0942,-3.1033,-3.1033,-3.1033,0,0,-3.0491,-3.054,-3.0547,-3.0603,-3.0638,-3.0657,-3.0718,-3.0734,-3.0749,-3.0824,-3.084,-3.0876,-3.0925,-3.093,-3.0934,-3.0956,-3.0926,-3.0945,-3.0938,-3.094,-3.0946,-3.0938,-3.093,-3.1031,-3.1031,-3.1032,0,0,-3.0423,-3.046,-3.0462,-3.0498,-3.0552,-3.0597,-3.0598,-3.0663,-3.0691,-3.0708,-3.0767,-3.0785,-3.0828,-3.0862,-3.0885,-3.0835,-3.0877,-3.0842,-3.0795,-3.0799,-3.0792,-3.0786,-3.0771,-3.0765,-3.084,-3.0839,-3.0839,0,-3.0361,-3.0392,-3.0456,-3.0471,-3.0495,-3.0567,-3.057,-3.0601,-3.0661,-3.0676,-3.07,-3.0759,-3.0796,-3.0813,-3.0802,-3.0817,-3.0821,-3.0835,-3.0788,-3.0783,-3.0778,-3.0765,-3.0759,-3.0835,-3.0835,-3.0836,-3.0836,0,-3.0316,-3.0337,-3.0332,-3.0391,-3.0415,-3.0422,-3.0489,-3.0505,-3.0546,-3.0589,-3.0609,-3.0657,-3.0698,-3.0705,-3.0743,-3.0729,-3.0741,-3.0775,-3.0816,-3.0764,-3.0753,-3.0748,-3.0829,-3.083,-3.0831,-3.0833,0,0,-3.0186,-3.0285,-3.0282,-3.0312,-3.038,-3.0398,-3.0411,-3.0454,-3.0468,-3.0508,-3.0522,-3.0559,-3.0594,-3.0619,-3.0663,-3.0665,-3.0628,-3.0701,-3.0703,-3.0687,-3.0619,-3.0593,-3.0586,-3.0657,-3.0656,-3.0655,-3.0615,0,-3.0129,-3.0158,-3.0219,-3.0229,-3.0251,-3.0323,-3.0335,-3.0378,-3.042,-3.0445,-3.0491,-3.0518,-3.056,-3.0577,-3.0583,-3.0631,-3.0615,-3.0635,-3.0671,-3.0672,-3.0658,-3.058,-3.0551,-3.0511,-3.0611,-3.061,-3.061,0,-3.0066,-3.0106,-3.0118,-3.0191,-3.0202,-3.0212,-3.0259,-3.0281,-3.0334,-3.0364,-3.0396,-3.0446,-3.0465,-3.0504,-3.0533,-3.0545,-3.0564,-3.0591,-3.0591,-3.0597,-3.0638,-3.0585,-3.0499,-3.0494,-3.0603,-3.0604,-3.0604,0,-2.9973,-3.0029,-3.0046,-3.0069,-3.0152,-3.0158,-3.0193,-3.0247,-3.0271,-3.0312,-3.0328,-3.037,-3.0393,-3.0424,-3.0484,-3.0506,-3.0508,-3.0551,-3.0535,-3.0534,-3.0532,-3.0531,-3.045,-3.0542,-3.0542,-3.0542,-3.0542,0,-2.9904,-2.9909,-3.0006,-3.0015,-3.0025,-3.0096,-3.0104,-3.0146,-3.0195,-3.0215,-3.0279,-3.0296,-3.0374,-3.0402,-3.0449,-3.0468,-3.0477,-3.0503,-3.0516,-3.0498,-3.0495,-3.0511,-3.0516,-3.0541,-3.0541,-3.0541,-3.0542,0,-2.98,-2.9865,-2.9888,-2.9967,-2.9988,-2.9991,-3.006,-3.0073,-3.0121,-3.0146,-3.0156,-3.023,-3.0266,-3.033,-3.0383,-3.0415,-3.0426,-3.0446,-3.0408,-3.0416,-3.0398,-3.04,-3.0325,-3.032,-3.0414,-3.0413,-3.0412,0,-2.9752,-2.9759,-2.984,-2.986,-2.9893,-2.9923,-2.9949,-3.0021,-3.0045,-3.0109,-3.0115,-3.0157,-3.0194,-3.0248,-3.0307,-3.0349,-3.0373,-3.0344,-3.0379,-3.0363,-3.0375,-3.0374,-3.0377,-3.0335,-3.0334,-3.0333,-3.0332,0,-2.966,-2.9694,-2.9729,-2.9777,-2.9807,-2.9847,-2.9891,-2.9903,-2.9985,-3.001,-3.0049,-3.0078,-3.0136,-3.0177,-3.0229,-3.0266,-3.0313,-3.0321,-3.032,-3.0302,-3.0281,-3.0295,-3.0388,-3.0322,-3.0323,-3.0324,-3.0324,-3.0324,-2.9585,-2.9596,-2.9657,-2.9695,-2.9737,-2.9778,-2.9796,-2.9848,-2.9883,-2.9936,-2.9977,-3.0014,-3.0071,-3.0146,-3.0181,-3.0212,-3.0233,-3.0231,-3.0231,-3.0229,-3.0224,-3.0276,-3.0221,-3.0222,-3.0222,-3.0222,-3.0223,0,-2.9499,-2.9543,-2.9578,-2.9639,-2.9671,-2.9716,-2.9768,-2.9791,-2.9823,-2.9874,-2.9911,-2.9958,-3.0,-3.0065,-3.0112,-3.0125,-3.0148,-3.0135,-3.0135,-3.0144,-3.0201,-3.0198,-3.0116,-3.0116,-3.0116,-3.0116,-3.0116,-3.0116,-2.9457,-2.948,-2.9521,-2.9567,-2.9611,-2.965,-2.9676,-2.9716,-2.9757,-2.9808,-2.9844,-2.9887,-2.9944,-2.9997,-3.0039,-3.0057,-3.0072,-3.0052,-3.0077,-3.0129,-3.0139,-3.0148,-3.0146,-3.0055,-3.0055,-3.0018,-3.0018,-3.0018]}]]